[[{"header":{"parameterUnit":"m.s-1","parameterCategory":1,"la1":30.2991,"la2":30.254,"lo1":-89.0895,"lo2":-89.0444,"dy":0.0017,"dx":0.0017,"nx":28,"ny":28,"refTime":"2025-12-23T09:00:00:Z","depth":0,"parameterNumber":2,"parameterNumberName":"U-component_of_WINDS"},"data":[0,0,0,0,0,0,0,0,0,0,0,0,0,0,0,0,0,0,0,0,0,0,0,0,0,0,0,0,0,0,0,0,0,0,0,0,0,0,0,0,0,0,0,0,0,0,0,0,0,0,0,0,0,0,0,0,0,0,-2.1589,-2.159,0,-2.1647,-2.1648,-2.1649,-2.1604,-2.1602,-2.16,-2.1598,-2.166,-2.1664,-2.1667,0,0,0,0,0,0,0,0,0,0,0,0,0,-2.1442,-2.1445,-2.1589,-2.159,-2.1591,-2.1647,-2.1648,-2.1649,-2.1604,-2.1602,-2.1599,-2.1597,-2.1659,-2.1663,-2.1667,0,0,0,0,0,0,0,0,0,0,0,0,0,-2.1504,-2.1446,-2.1589,-2.1575,-2.1574,-2.1647,-2.1648,-2.1649,-2.1604,-2.1601,-2.1599,-2.1596,-2.1658,-2.1663,-2.1668,-2.1759,0,0,-2.1684,-2.1686,0,0,0,0,0,0,0,0,-2.15,-2.1509,-2.1576,-2.1576,-2.1575,-2.1615,-2.1619,-2.1686,-2.1605,-2.1593,-2.1598,-2.1594,-2.1648,-2.1654,-2.1671,-2.1762,-2.1764,-2.1684,-2.1688,-2.169,-2.1691,0,0,0,0,0,0,0,-2.1496,-2.1506,-2.1612,-2.1577,-2.1577,-2.1567,-2.1572,-2.1631,-2.1636,-2.1594,-2.1591,-2.1598,-2.1647,-2.1666,-2.1672,-2.1765,-2.1684,-2.1689,-2.1692,-2.1694,-2.1933,-2.1936,0,0,0,0,0,0,-2.1493,-2.1503,-2.161,-2.1614,-2.153,-2.1572,-2.1578,-2.1605,-2.1635,-2.1637,-2.1601,-2.1596,-2.1659,-2.1666,-2.1674,-2.1782,-2.169,-2.1695,-2.1698,-2.1929,-2.1933,-2.1937,0,0,0,0,0,0,-2.149,-2.1503,-2.1608,-2.1558,-2.157,-2.1577,-2.1609,-2.1608,-2.1627,-2.164,-2.1641,-2.1619,-2.1657,-2.1667,-2.1738,-2.1784,-2.1697,-2.1702,-2.1926,-2.1931,-2.1935,-2.1999,0,0,0,0,0,0,-2.1486,-2.1502,-2.1536,-2.1559,-2.1573,-2.167,-2.1611,-2.1611,-2.1636,-2.163,-2.1658,-2.166,-2.1655,-2.173,-2.1743,-2.1789,-2.1706,-2.1922,-2.1928,-2.1934,-2.1993,-2.2006,-2.2016,0,0,0,0,0,-2.1481,-2.1552,-2.1538,-2.1551,-2.1616,-2.1673,-2.1681,-2.1674,-2.164,-2.1674,-2.1683,-2.1659,-2.1776,-2.1738,-2.1752,-2.1801,-2.1919,-2.1926,-2.1933,-2.1988,-2.2003,-2.2016,0,0,0,0,0,0,-2.1536,-2.1555,-2.1539,-2.162,-2.1645,-2.1665,-2.1709,-2.169,-2.1726,-2.1719,-2.1709,-2.1716,-2.179,-2.1802,-2.1759,-2.189,-2.1842,-2.1853,-2.1879,-2.1894,-2.1905,-2.1901,-2.171,0,0,0,0,0,-2.1557,-2.1601,-2.1616,-2.1686,-2.1699,-2.1702,-2.1727,-2.1718,-2.1744,-2.1755,-2.1768,-2.1795,-2.1838,-2.1866,-2.1906,-2.1994,-2.2,-2.2035,-2.2046,-2.2056,-2.2065,-2.2112,-2.2128,-2.1961,-2.196,-2.196,0,0,-2.1603,-2.1619,-2.1647,-2.1698,-2.1716,-2.1763,-2.1711,-2.1763,-2.1797,-2.1763,-2.183,-2.1841,-2.187,-2.195,-2.1986,-2.1962,-2.2112,-2.2065,-2.2072,-2.2077,-2.2121,-2.2137,-2.2151,-2.1965,-2.1965,-2.1964,0,0,-2.1709,-2.1725,-2.1785,-2.1804,-2.1832,-2.1833,-2.1848,-2.187,-2.1876,-2.1943,-2.1918,-2.1959,-2.2033,-2.2055,-2.2076,-2.2189,-2.2169,-2.2203,-2.2264,-2.231,-2.2323,-2.2335,-2.2376,-2.2391,-2.2212,-2.2212,-2.2212,0,-2.1762,-2.183,-2.1819,-2.1872,-2.1895,-2.1865,-2.1926,-2.1945,-2.1985,-2.2002,-2.1975,-2.2067,-2.2085,-2.2169,-2.2196,-2.2214,-2.2231,-2.22,-2.2322,-2.2334,-2.2345,-2.2383,-2.2399,-2.2216,-2.2215,-2.2215,-2.2215,0,-2.1894,-2.1942,-2.1987,-2.2025,-2.2054,-2.2111,-2.2109,-2.2139,-2.2128,-2.2132,-2.2201,-2.222,-2.2264,-2.2283,-2.2274,-2.2366,-2.2351,-2.2323,-2.2276,-2.2365,-2.2401,-2.2416,-2.2222,-2.222,-2.2219,-2.2218,0,0,-2.2038,-2.2068,-2.2085,-2.2102,-2.213,-2.2167,-2.2223,-2.2264,-2.229,-2.2319,-2.2365,-2.2428,-2.2403,-2.2426,-2.2419,-2.2459,-2.2548,-2.2427,-2.2427,-2.2449,-2.2652,-2.2672,-2.269,-2.2534,-2.2537,-2.2539,-2.2649,0,-2.2146,-2.2242,-2.2233,-2.2324,-2.2368,-2.2339,-2.2388,-2.2411,-2.2416,-2.2455,-2.246,-2.2505,-2.2468,-2.2482,-2.2521,-2.2529,-2.2589,-2.2521,-2.2579,-2.2581,-2.2573,-2.2709,-2.2731,-2.2834,-2.2663,-2.2666,-2.2667,0,-2.2285,-2.2317,-2.2412,-2.2433,-2.2451,-2.2495,-2.2532,-2.2569,-2.2594,-2.2595,-2.2621,-2.2606,-2.2663,-2.2613,-2.2691,-2.2645,-2.2668,-2.2676,-2.268,-2.2685,-2.263,-2.2719,-2.2866,-2.2882,-2.269,-2.2688,-2.2686,0,-2.2381,-2.2448,-2.2513,-2.2528,-2.2554,-2.2586,-2.2598,-2.262,-2.2645,-2.2678,-2.2694,-2.2734,-2.2755,-2.2786,-2.2783,-2.2747,-2.2862,-2.2812,-2.2865,-2.2866,-2.2892,-2.289,-2.3046,-2.2906,-2.2905,-2.2905,-2.2905,0,-2.2502,-2.2562,-2.2556,-2.2597,-2.2663,-2.2652,-2.2718,-2.2727,-2.2747,-2.2789,-2.2767,-2.2807,-2.2799,-2.284,-2.2837,-2.2903,-2.2913,-2.2915,-2.2914,-2.2918,-2.2917,-2.2933,-2.2926,-2.2909,-2.2908,-2.2907,-2.2907,0,-2.2621,-2.262,-2.2689,-2.2707,-2.2713,-2.2761,-2.2777,-2.2816,-2.2818,-2.2872,-2.2884,-2.2889,-2.2935,-2.2934,-2.2987,-2.2986,-2.3066,-2.3056,-2.3057,-2.3055,-2.3108,-2.3103,-2.328,-2.3303,-2.3147,-2.3149,-2.315,0,-2.2699,-2.2744,-2.2767,-2.2793,-2.2807,-2.2849,-2.2874,-2.2865,-2.2893,-2.2925,-2.296,-2.3003,-2.3038,-2.3113,-2.3122,-2.3162,-2.3154,-2.3213,-2.316,-2.3162,-2.3155,-2.3153,-2.3157,-2.3224,-2.3225,-2.3227,-2.3228,0,-2.2838,-2.2835,-2.2872,-2.2908,-2.2939,-2.2967,-2.2994,-2.3017,-2.301,-2.3043,-2.3089,-2.3116,-2.3169,-2.3213,-2.3252,-2.3265,-2.3246,-2.3244,-2.3259,-2.3263,-2.3262,-2.3264,-2.3086,-2.3241,-2.3239,-2.3238,-2.3238,-2.3237,-2.2939,-2.2978,-2.2999,-2.3041,-2.3059,-2.3084,-2.3121,-2.3128,-2.3166,-2.3208,-2.32,-2.3253,-2.3276,-2.3326,-2.3343,-2.3384,-2.3363,-2.3384,-2.3389,-2.3395,-2.3401,-2.3255,-2.3391,-2.339,-2.339,-2.339,-2.3389,0,-2.3077,-2.3089,-2.3128,-2.3164,-2.3197,-2.3175,-2.3203,-2.3232,-2.3278,-2.3301,-2.3335,-2.3388,-2.343,-2.3442,-2.3483,-2.3513,-2.3506,-2.3525,-2.3523,-2.3526,-2.3417,-2.34,-2.353,-2.353,-2.353,-2.353,-2.353,-2.353,-2.3153,-2.3217,-2.3216,-2.3289,-2.3301,-2.3351,-2.3368,-2.3391,-2.341,-2.347,-2.3504,-2.3511,-2.353,-2.3572,-2.361,-2.3612,-2.3628,-2.3651,-2.365,-2.3548,-2.3534,-2.352,-2.3505,-2.3654,-2.3654,-2.3756,-2.3756,-2.3757]},{"header":{"parameterUnit":"m.s-1","parameterCategory":1,"la1":30.2991,"la2":30.254,"lo1":-89.0895,"lo2":-89.0444,"dy":0.0017,"dx":0.0017,"nx":28,"ny":28,"refTime":"2025-12-23T09:00:00:Z","depth":0,"parameterNumber":3,"parameterNumberName":"V-component_of_WINDS"},"data":[0,0,0,0,0,0,0,0,0,0,0,0,0,0,0,0,0,0,0,0,0,0,0,0,0,0,0,0,0,0,0,0,0,0,0,0,0,0,0,0,0,0,0,0,0,0,0,0,0,0,0,0,0,0,0,0,0,0,-0.9342,-0.9341,0,-0.9262,-0.9262,-0.9261,-0.923,-0.923,-0.9231,-0.9231,-0.9146,-0.9143,-0.9141,0,0,0,0,0,0,0,0,0,0,0,0,0,-0.9462,-0.946,-0.9342,-0.9341,-0.934,-0.9263,-0.9262,-0.926,-0.923,-0.923,-0.9231,-0.9231,-0.9147,-0.9144,-0.9141,0,0,0,0,0,0,0,0,0,0,0,0,0,-0.9399,-0.9459,-0.9342,-0.9315,-0.9312,-0.9263,-0.9261,-0.926,-0.923,-0.9231,-0.9231,-0.9231,-0.9148,-0.9144,-0.914,-0.911,0,0,-0.9129,-0.9127,0,0,0,0,0,0,0,0,-0.9403,-0.9395,-0.932,-0.9317,-0.9314,-0.9257,-0.9273,-0.921,-0.923,-0.9261,-0.9231,-0.9231,-0.9182,-0.9176,-0.916,-0.9106,-0.9102,-0.9128,-0.9126,-0.9125,-0.9124,0,0,0,0,0,0,0,-0.9407,-0.9398,-0.931,-0.9319,-0.9315,-0.9306,-0.9297,-0.9261,-0.922,-0.9259,-0.9256,-0.9247,-0.918,-0.9163,-0.9158,-0.9101,-0.9129,-0.9125,-0.9123,-0.9122,-0.9017,-0.9016,0,0,0,0,0,0,-0.9416,-0.9402,-0.9313,-0.9308,-0.936,-0.9304,-0.9294,-0.9275,-0.9221,-0.9213,-0.9247,-0.9246,-0.917,-0.9162,-0.9154,-0.9114,-0.9125,-0.9121,-0.9119,-0.9017,-0.9017,-0.9016,0,0,0,0,0,0,-0.9419,-0.9409,-0.9316,-0.9354,-0.9342,-0.9301,-0.9279,-0.9273,-0.9256,-0.9212,-0.9205,-0.9238,-0.917,-0.916,-0.9121,-0.9111,-0.9119,-0.9116,-0.9018,-0.9017,-0.9016,-0.9034,0,0,0,0,0,0,-0.9423,-0.941,-0.9399,-0.9354,-0.934,-0.9285,-0.9279,-0.9271,-0.925,-0.9248,-0.9201,-0.9194,-0.9169,-0.9127,-0.9117,-0.9106,-0.9113,-0.9019,-0.9017,-0.9016,-0.9035,-0.9034,-0.9034,0,0,0,0,0,-0.9427,-0.9407,-0.9399,-0.9388,-0.9326,-0.9285,-0.9276,-0.925,-0.9249,-0.9237,-0.9209,-0.9195,-0.9114,-0.9123,-0.9112,-0.9099,-0.9019,-0.9018,-0.9017,-0.9035,-0.9034,-0.9034,0,0,0,0,0,0,-0.945,-0.94,-0.9391,-0.9356,-0.9325,-0.928,-0.9264,-0.9251,-0.9218,-0.9217,-0.9184,-0.9174,-0.9138,-0.9115,-0.9126,-0.9067,-0.9065,-0.9062,-0.9083,-0.9082,-0.9082,-0.9088,-0.911,0,0,0,0,0,-0.9452,-0.9424,-0.9382,-0.9355,-0.934,-0.9305,-0.9286,-0.9268,-0.9234,-0.9221,-0.919,-0.9156,-0.9123,-0.9101,-0.9068,-0.9031,-0.902,-0.9017,-0.9017,-0.9017,-0.9014,-0.8991,-0.8989,-0.9012,-0.9012,-0.9012,0,0,-0.9453,-0.9423,-0.9407,-0.9359,-0.9333,-0.9303,-0.9294,-0.9264,-0.9241,-0.9215,-0.9177,-0.9153,-0.9113,-0.9075,-0.9057,-0.9055,-0.9005,-0.9015,-0.9016,-0.9013,-0.899,-0.8987,-0.8986,-0.9011,-0.9011,-0.9011,0,0,-0.9442,-0.9417,-0.9391,-0.9365,-0.9326,-0.9303,-0.9297,-0.9254,-0.9237,-0.9199,-0.9179,-0.9151,-0.9094,-0.9066,-0.9045,-0.9022,-0.9007,-0.9012,-0.9011,-0.8989,-0.8987,-0.8985,-0.8976,-0.8973,-0.901,-0.901,-0.901,0,-0.9449,-0.9405,-0.9379,-0.935,-0.9328,-0.9305,-0.9277,-0.9253,-0.9205,-0.919,-0.9189,-0.9117,-0.9089,-0.9043,-0.9038,-0.9022,-0.9012,-0.9017,-0.899,-0.8988,-0.8986,-0.8976,-0.8972,-0.901,-0.901,-0.901,-0.901,0,-0.9415,-0.9385,-0.9368,-0.9324,-0.93,-0.9272,-0.924,-0.9219,-0.9203,-0.9179,-0.9139,-0.9105,-0.9064,-0.9052,-0.9036,-0.9003,-0.9003,-0.8997,-0.8994,-0.8985,-0.8975,-0.8971,-0.9011,-0.9011,-0.9011,-0.9011,0,0,-0.9415,-0.9356,-0.9351,-0.9329,-0.9285,-0.926,-0.923,-0.9191,-0.9173,-0.9141,-0.9113,-0.9066,-0.906,-0.9035,-0.9016,-0.8997,-0.8979,-0.8992,-0.899,-0.8989,-0.8939,-0.8943,-0.894,-0.897,-0.8969,-0.8968,-0.8942,0,-0.9396,-0.9343,-0.9319,-0.9276,-0.9247,-0.9224,-0.9198,-0.9166,-0.9143,-0.9114,-0.9088,-0.9055,-0.9049,-0.9034,-0.9014,-0.8985,-0.8968,-0.8987,-0.8942,-0.8941,-0.8951,-0.8935,-0.8939,-0.8916,-0.8938,-0.8937,-0.8937,0,-0.9368,-0.9336,-0.9291,-0.9249,-0.9235,-0.9212,-0.9174,-0.9147,-0.911,-0.9095,-0.9068,-0.9049,-0.9014,-0.9016,-0.8967,-0.898,-0.896,-0.8943,-0.8942,-0.8935,-0.8937,-0.8926,-0.8908,-0.8904,-0.8931,-0.8932,-0.8932,0,-0.9371,-0.9317,-0.9282,-0.9265,-0.9216,-0.92,-0.9178,-0.9142,-0.912,-0.9086,-0.907,-0.9033,-0.9012,-0.8982,-0.8953,-0.8957,-0.8906,-0.8906,-0.8891,-0.8891,-0.888,-0.8881,-0.8857,-0.887,-0.887,-0.887,-0.887,0,-0.9352,-0.9325,-0.9283,-0.9262,-0.923,-0.9201,-0.917,-0.9146,-0.9114,-0.9086,-0.9064,-0.9038,-0.9002,-0.8971,-0.8948,-0.891,-0.8901,-0.8886,-0.888,-0.8887,-0.8889,-0.8872,-0.8873,-0.8869,-0.8869,-0.8869,-0.887,0,-0.935,-0.9321,-0.9282,-0.9238,-0.9226,-0.9205,-0.9166,-0.9144,-0.912,-0.9085,-0.9075,-0.9036,-0.8999,-0.8967,-0.8917,-0.8901,-0.8862,-0.8855,-0.8874,-0.8871,-0.8857,-0.8858,-0.8821,-0.8813,-0.8833,-0.8833,-0.8833,0,-0.9339,-0.9317,-0.9272,-0.9252,-0.9231,-0.92,-0.9177,-0.9147,-0.9124,-0.9081,-0.9063,-0.9024,-0.8991,-0.8932,-0.8898,-0.886,-0.8851,-0.8841,-0.8845,-0.8852,-0.8849,-0.885,-0.8847,-0.884,-0.884,-0.884,-0.884,0,-0.9322,-0.9309,-0.9278,-0.9242,-0.9216,-0.9185,-0.9154,-0.9139,-0.9103,-0.9078,-0.904,-0.9015,-0.8964,-0.8925,-0.8883,-0.8858,-0.8842,-0.8839,-0.8833,-0.8839,-0.8851,-0.8843,-0.8872,-0.884,-0.884,-0.884,-0.884,-0.884,-0.9314,-0.9294,-0.9258,-0.9224,-0.9197,-0.9169,-0.9145,-0.9118,-0.9086,-0.9043,-0.9028,-0.8988,-0.895,-0.8892,-0.8868,-0.8835,-0.8833,-0.8825,-0.8822,-0.882,-0.8821,-0.8857,-0.8827,-0.8827,-0.8827,-0.8827,-0.8827,0,-0.9295,-0.9271,-0.924,-0.9198,-0.917,-0.9159,-0.9124,-0.9101,-0.9067,-0.9034,-0.9002,-0.8957,-0.8919,-0.8883,-0.8842,-0.8823,-0.8814,-0.8813,-0.8813,-0.8807,-0.8826,-0.8834,-0.8821,-0.8821,-0.8821,-0.8821,-0.8821,-0.8821,-0.9282,-0.9246,-0.9228,-0.9178,-0.9154,-0.9116,-0.9096,-0.9069,-0.9042,-0.8994,-0.8962,-0.8939,-0.8904,-0.8861,-0.8824,-0.8815,-0.88,-0.88,-0.8788,-0.8805,-0.8806,-0.8807,-0.8815,-0.8798,-0.8798,-0.8772,-0.8772,-0.8772]}]]